RH
21 20 18 16 15 13 11 10 9 7 7 6 6 6 6 6 6 6 7 7 7 7 7 7 7 7 6 7 7 9 11 14 19 26 33 40 46 49 49 45 43 45 49 44 37 30 24 21 21 24 26 28 29 30 31 32 34 36 40 45 51 57 62 67 70 73 74 75 74 73 70 68 66 65 65 64 63 60 56 51 46 44 45 51 57 61
22 20 18 17 15 13 12 10 9 8 7 6 6 6 6 6 7 7 7 7 7 7 7 7 7 7 6 7 9 11 15 20 26 33 38 43 46 48 47 44 45 48 54 45 37 29 23 21 21 24 26 28 30 31 31 32 34 36 39 43 48 53 59 64 67 69 71 72 71 71 70 68 67 65 63 60 57 52 47 44 43 45 48 53 57 61
22 21 19 17 16 14 12 10 9 8 7 6 6 6 6 7 7 7 7 7 7 7 7 7 7 6 6 8 11 16 20 26 33 38 42 43 45 47 47 46 48 52 58 45 35 28 22 21 22 24 26 28 30 31 32 33 34 35 38 41 45 49 53 57 61 64 66 67 67 67 66 64 62 60 55 51 48 46 44 44 47 49 52 56 60 63
23 21 20 18 16 14 12 10 9 8 7 7 6 6 6 7 7 7 7 7 7 7 7 7 7 6 6 10 14 20 26 33 39 43 44 43 44 46 48 50 53 56 58 44 35 28 22 22 24 26 27 29 30 31 33 34 35 36 37 39 41 44 46 49 52 55 58 59 60 60 59 58 57 55 52 49 48 47 46 49 53 57 61 68 73 75
23 22 20 18 16 14 12 10 9 8 7 7 6 6 7 7 7 7 7 7 7 7 7 7 7 6 6 11 17 24 32 38 43 45 45 44 44 46 49 52 57 59 57 43 34 28 24 25 26 28 29 30 31 32 34 35 36 38 39 40 41 41 42 44 47 49 52 53 53 53 53 55 55 54 51 51 51 51 51 55 58 63 70 75 77 78
24 22 20 18 16 14 12 10 9 7 7 6 6 6 7 7 7 7 7 7 8 8 8 7 7 7 7 12 19 27 35 42 45 47 46 44 45 46 50 55 59 60 54 41 34 30 26 28 30 32 32 32 33 34 35 37 39 40 42 43 43 44 44 45 46 48 49 49 49 49 49 50 51 50 50 50 51 53 57 63 64 64 67 72 77 80
24 23 20 18 16 14 12 10 9 7 6 6 6 6 7 7 7 7 8 8 8 8 8 8 7 7 7 12 19 29 38 44 47 48 46 45 45 47 50 56 59 58 50 41 35 32 30 33 35 38 38 37 37 38 39 41 43 45 48 49 50 50 49 49 49 49 49 48 48 47 48 49 50 50 50 50 52 58 66 71 72 70 70 72 75 77
25 23 21 19 17 14 12 10 9 7 6 6 6 6 7 7 7 8 8 8 8 8 8 8 7 7 6 11 19 30 40 46 49 49 47 46 46 48 51 56 58 55 47 42 38 35 34 38 42 45 46 45 45 46 47 49 52 56 60 62 63 63 60 57 53 51 50 50 50 50 51 53 54 54 54 55 59 65 73 76 78 79 78 78 78 79
25 23 21 19 17 14 12 10 9 7 7 6 6 6 7 7 8 8 8 8 8 8 8 8 8 7 6 10 18 30 41 48 51 51 48 46 46 48 51 55 56 53 47 43 41 39 38 43 48 53 55 56 57 58 60 62 66 70 74 76 77 78 77 73 68 60 53 50 49 51 53 55 57 58 60 62 67 72 78 80 81 82 82 80 80 81
26 24 21 19 17 15 12 10 8 7 7 6 6 7 7 7 8 8 8 8 8 8 8 8 8 7 6 9 17 28 41 48 51 52 50 48 47 48 51 54 53 51 48 46 44 43 43 47 53 59 63 64 66 68 71 74 77 80 82 83 84 85 85 84 82 76 68 58 52 50 52 56 60 64 68 71 75 78 81 82 81 79 76 76 76 79
26 24 22 19 17 15 12 10 8 7 6 6 6 6 7 7 8 8 8 8 8 8 8 8 8 8 6 7 14 24 38 46 51 52 51 50 49 50 51 52 52 50 49 48 48 47 46 50 56 62 66 67 68 70 73 77 81 83 84 85 85 85 85 85 86 85 82 75 67 60 58 62 67 72 76 78 80 81 81 80 79 77 76 76 77 78
27 25 22 20 18 15 13 10 8 7 6 6 6 6 7 7 8 8 8 8 8 8 9 9 8 8 7 6 11 20 34 44 49 52 53 52 53 53 54 53 51 50 49 50 50 50 49 52 56 62 66 67 68 69 71 74 76 79 81 82 83 83 83 84 84 85 85 84 80 76 72 74 77 80 81 81 81 80 80 80 79 79 79 80 81 81
28 26 23 21 18 16 13 11 9 7 6 6 6 6 7 7 8 8 8 8 9 9 9 9 9 8 8 6 9 16 28 39 47 52 54 55 57 58 59 58 56 53 52 52 52 52 51 53 56 60 63 65 67 69 71 72 74 76 79 82 83 84 83 84 84 84 84 85 85 84 83 83 83 83 83 82 82 82 82 82 82 83 83 84 84 84
29 26 24 21 19 16 14 11 9 7 6 6 6 6 7 7 8 8 8 9 9 9 9 9 9 9 8 7 8 12 22 34 43 51 55 58 60 63 65 65 64 62 60 60 59 58 56 56 56 58 60 64 68 72 74 76 77 79 81 83 85 85 85 85 85 85 85 85 86 86 85 85 84 84 84 84 84 84 84 85 85 85 85 85 85 85
29 27 25 22 20 17 14 12 10 8 6 6 6 6 6 7 8 8 9 9 9 9 9 9 9 9 9 8 8 10 17 28 39 49 56 59 62 66 69 71 72 71 70 69 68 66 63 61 60 59 60 65 71 76 78 81 83 85 85 85 85 85 85 85 85 85 85 85 85 85 85 85 84 84 85 85 85 85 86 85 85 85 85 85 85 85
30 28 26 23 21 18 15 13 10 8 6 6 6 6 6 7 7 8 9 9 9 9 9 9 9 9 9 8 8 9 13 23 34 45 54 59 64 68 72 74 76 76 75 73 72 70 69 67 65 64 64 69 74 78 81 84 85 86 85 85 85 85 85 85 85 85 85 85 85 85 85 85 85 85 85 85 85 85 85 85 85 85 85 85 85 85
31 29 26 24 22 20 17 14 11 9 7 6 5 6 6 6 7 8 9 9 9 9 10 10 10 10 10 9 8 9 11 18 28 39 50 58 64 69 73 75 78 80 80 76 74 73 72 72 71 70 71 73 76 79 82 84 85 86 85 84 84 85 85 85 85 85 85 85 85 86 86 85 84 83 82 81 82 82 83 83 84 84 84 84 84 84
32 30 27 25 23 21 18 15 13 10 7 6 5 5 5 6 7 8 8 9 9 10 10 10 10 10 10 10 9 8 9 13 21 31 44 54 62 68 73 76 78 81 82 80 78 76 75 74 73 72 73 75 77 79 82 85 86 86 85 85 85 85 85 85 85 85 85 85 85 85 84 82 80 78 76 76 76 76 77 78 78 79 79 79 80 80
33 31 28 26 24 22 19 17 14 11 8 7 6 5 5 6 6 7 8 9 9 10 10 10 10 10 10 10 9 9 9 10 15 24 37 49 59 67 73 76 78 81 83 83 82 80 78 77 76 75 75 75 77 79 81 84 86 87 87 87 86 86 86 86 86 86 86 86 86 85 84 82 80 78 76 75 74 73 73 73 73 73 73 73 73 73
34 32 30 27 25 23 20 18 15 13 10 8 6 5 5 5 6 7 8 9 9 10 10 10 11 11 11 11 10 10 9 9 12 18 28 41 52 63 72 76 80 82 83 83 83 83 83 83 82 81 80 79 79 80 81 83 85 86 86 86 86 87 87 87 87 87 87 86 85 85 84 83 82 80 78 76 75 74 73 72 72 71 70 69 69 68
35 33 31 29 26 24 21 19 17 14 11 9 7 6 5 5 6 7 8 9 9 10 10 11 11 11 11 11 11 10 10 9 10 13 20 30 41 52 64 72 78 83 85 84 84 83 83 84 85 85 85 84 84 83 83 83 84 84 84 84 84 85 85 85 86 86 86 87 86 86 85 84 83 81 80 78 76 75 75 74 73 72 71 70 70 69
36 34 32 30 27 25 22 20 18 16 13 10 8 6 5 5 5 6 7 8 9 10 10 11 11 12 12 12 12 11 11 10 9 10 12 18 26 36 47 58 69 77 83 84 84 83 82 84 85 85 86 86 86 86 85 85 84 83 83 82 82 82 82 82 83 84 85 86 86 87 87 87 86 85 83 82 80 79 78 77 76 76 75 74 73 72
36 35 33 31 28 26 23 21 19 17 15 12 10 8 6 5 5 6 6 8 8 9 10 10 11 11 12 12 12 12 12 11 10 10 9 11 15 20 28 37 49 60 70 75 78 79 79 80 81 82 83 84 84 85 85 84 84 84 83 83 83 82 82 81 81 82 82 83 84 85 86 86 87 87 86 86 85 84 83 82 82 81 80 79 78 77
37 35 34 32 29 27 25 22 20 18 16 14 11 10 8 6 6 5 6 7 8 9 9 10 11 11 12 12 12 13 13 12 12 11 10 10 10 12 14 19 27 36 45 53 60 66 69 70 72 74 76 77 79 80 81 81 81 82 82 82 82 81 81 80 80 80 80 80 81 81 82 84 85 85 86 86 86 86 86 86 86 86 85 85 84 83
38 36 35 33 31 29 26 24 21 19 17 15 13 11 9 7 6 6 6 7 7 8 9 10 11 11 12 12 13 13 13 13 13 13 12 12 11 10 10 11 13 17 21 28 35 41 47 51 54 57 61 64 67 70 73 75 76 77 77 77 78 78 78 77 77 77 76 77 77 77 78 79 80 82 83 84 85 85 85 86 86 86 86 86 86 86
39 37 36 34 32 30 28 25 23 20 18 16 14 13 11 9 7 6 6 6 7 8 9 10 10 11 12 12 12 13 13 13 14 14 14 14 13 13 12 11 11 10 11 13 16 19 23 26 30 34 37 41 46 51 56 61 66 69 71 72 73 73 73 74 74 74 74 74 74 74 74 75 76 77 78 80 81 82 83 84 84 85 85 85 85 86
40 38 37 35 33 31 29 27 24 21 19 17 15 14 12 10 9 7 6 6 6 7 8 9 10 11 11 12 12 13 13 14 14 14 15 15 15 15 15 14 13 12 11 11 11 11 11 12 14 16 18 20 23 26 30 36 43 50 56 61 65 68 69 70 71 72 72 73 73 73 72 72 72 73 74 76 77 79 80 81 83 83 84 84 84 85
40 39 38 36 34 32 30 28 26 23 20 18 16 15 13 12 10 8 7 6 6 7 8 8 9 10 11 12 12 12 13 13 14 14 15 15 16 16 16 16 16 15 14 14 13 12 11 11 11 11 11 11 12 12 13 15 18 23 30 37 44 51 56 60 63 65 67 69 70 70 71 71 71 71 72 73 74 75 76 78 80 81 82 83 84 84
41 40 39 37 35 34 32 30 27 25 22 19 17 15 14 13 11 10 8 7 7 7 7 8 9 10 11 11 12 12 12 13 14 14 15 15 16 16 17 17 17 17 17 16 15 15 14 14 13 13 12 12 11 11 10 10 10 10 11 15 19 25 32 38 44 50 54 57 60 62 64 66 67 68 69 70 71 72 73 75 76 77 79 80 81 82
42 41 39 38 36 35 33 31 29 26 23 20 18 16 15 13 12 11 10 8 8 7 7 8 8 9 10 11 11 12 12 13 13 14 14 15 15 16 16 17 18 18 18 17 17 16 16 16 16 15 15 14 13 13 12 11 10 10 9 9 9 10 12 16 21 26 32 38 43 47 50 53 55 58 59 61 63 64 67 68 70 72 74 76 77 78
42 41 40 39 37 36 34 32 30 28 25 21 18 16 15 14 13 12 11 10 9 8 8 8 8 9 10 10 11 11 12 12 13 13 14 14 15 15 15 16 17 17 18 18 18 18 18 17 17 17 17 16 15 15 14 13 13 12 11 10 10 9 8 9 9 11 14 17 21 26 30 35 38 42 45 47 49 51 53 55 57 60 63 66 69 71
43 42 41 40 38 37 35 34 32 29 26 23 20 17 15 14 14 13 12 11 10 9 9 9 9 9 10 10 10 11 11 11 12 13 13 13 14 14 14 15 16 16 17 17 18 18 19 18 19 19 18 18 17 17 16 16 15 14 13 13 12 11 10 10 9 9 8 9 10 11 14 17 20 24 27 31 34 36 39 40 42 44 46 49 52 55
44 43 42 41 39 38 36 35 33 31 28 24 21 18 16 15 14 13 13 12 11 10 10 10 9 10 10 10 10 11 11 11 12 13 13 13 13 13 14 14 14 15 15 16 17 17 18 19 19 20 20 19 19 18 18 18 17 16 16 15 14 13 12 11 11 10 9 9 9 8 8 9 10 11 13 16 18 21 24 27 29 31 33 35 37 39
45 44 43 41 40 39 38 36 34 32 30 26 23 19 17 15 14 14 13 13 12 12 11 10 10 10 10 10 11 11 11 11 12 13 13 13 13 13 13 14 14 14 15 15 16 16 17 18 19 20 20 20 20 20 19 19 18 18 18 17 16 15 14 13 13 12 11 10 10 9 9 8 8 8 8 9 9 10 12 14 16 18 21 23 25 27
46 45 43 42 41 40 39 37 36 34 31 28 25 21 18 16 15 14 14 13 13 12 12 12 11 11 11 11 11 11 11 11 12 13 13 14 14 14 14 14 14 15 15 15 16 16 17 17 18 19 20 21 21 21 21 20 20 20 19 18 18 17 16 15 14 14 13 12 11 11 10 10 9 9 8 8 8 8 8 8 9 10 11 12 14 16
48 46 45 43 42 41 40 39 37 35 33 30 27 24 20 18 16 15 14 14 14 13 13 12 12 12 12 12 12 12 12 12 13 14 14 14 15 15 15 15 15 16 16 16 16 17 17 17 18 18 19 20 21 22 22 21 21 21 20 20 19 19 18 17 16 15 14 13 13 12 11 11 10 10 9 9 9 8 8 8 8 8 8 8 8 9
50 48 46 44 43 42 41 40 38 37 35 32 29 26 23 19 17 16 15 14 14 14 13 13 13 13 13 13 13 13 13 13 14 14 15 15 16 16 16 17 17 17 17 17 17 18 18 18 19 19 19 20 21 22 22 22 22 22 22 21 20 20 19 18 18 17 16 15 14 13 13 12 11 11 10 10 10 9 9 9 8 8 8 8 8 7
52 50 48 46 44 43 42 41 40 38 36 34 31 28 25 22 19 17 16 15 15 15 14 14 14 14 14 14 14 14 14 14 15 15 16 17 17 18 18 18 19 19 19 19 19 19 19 20 20 20 21 21 21 22 23 23 23 23 23 22 21 21 20 19 18 18 16 16 15 14 13 13 12 12 11 11 11 10 10 10 9 9 8 8 8 8
54 52 50 48 46 44 43 42 41 39 38 36 34 31 27 24 21 19 17 17 16 16 15 15 15 15 15 15 15 15 15 15 16 16 17 18 19 19 20 20 21 21 21 21 21 21 21 21 22 22 22 23 23 23 24 24 24 24 24 23 23 22 21 20 19 18 17 16 15 15 14 13 13 12 12 12 11 11 11 11 10 10 9 9 9 8
56 54 51 49 47 46 44 43 42 41 39 38 35 33 30 26 23 21 19 18 18 17 17 17 17 16 16 16 16 16 16 17 18 18 19 20 20 21 21 22 22 23 23 23 23 23 24 24 24 24 25 25 25 25 25 26 26 25 25 25 24 24 22 21 20 19 18 17 16 15 14 14 13 13 13 12 12 12 12 12 11 11 10 10 10 9
58 56 53 51 49 47 45 44 43 42 41 39 37 35 32 29 26 23 21 20 19 19 19 19 18 18 18 18 18 18 18 19 20 20 21 22 22 22 23 23 24 24 24 25 25 25 26 26 27 27 27 27 27 27 27 27 27 27 26 26 26 25 24 22 21 20 19 18 17 16 15 14 14 14 13 13 13 13 13 12 12 12 12 11 11 10
60 58 55 52 50 48 47 46 45 44 43 41 39 37 35 32 28 26 23 22 21 21 21 20 20 20 20 20 20 20 20 21 21 22 22 22 23 23 23 24 24 24 25 26 26 27 27 28 29 29 29 29 28 28 28 28 28 28 27 27 27 26 25 23 22 21 20 18 18 17 16 15 14 14 14 13 13 13 13 13 13 13 12 12 12 11
62 60 57 54 52 50 49 47 46 45 44 43 41 39 37 35 32 29 26 24 23 23 23 22 22 22 22 22 22 21 21 21 22 22 22 22 22 23 23 23 24 24 25 25 26 27 28 29 30 30 30 30 29 29 28 29 29 29 28 28 27 27 26 24 23 22 21 19 18 18 17 16 15 15 14 14 13 13 13 13 13 13 13 13 12 12
64 61 59 56 54 52 51 49 48 47 46 44 43 42 40 37 35 32 29 27 26 25 25 25 24 24 24 23 23 22 22 22 22 22 22 22 22 22 22 23 23 23 24 25 25 26 27 29 30 30 29 30 30 30 29 29 29 30 29 28 28 27 26 25 24 23 22 20 19 18 18 17 16 15 15 14 14 13 13 13 12 12 12 12 12 12
66 63 60 59 57 55 53 51 50 49 48 46 45 44 42 40 38 35 33 31 29 27 27 27 26 26 25 24 23 23 22 22 22 22 21 21 21 21 22 22 22 23 23 24 24 25 26 28 29 29 29 29 30 30 30 29 29 30 29 28 28 27 27 26 25 23 22 21 20 19 18 18 17 16 15 15 14 14 13 13 12 12 12 12 12 12
68 65 62 60 59 57 56 54 53 51 50 49 47 46 44 43 41 39 36 34 32 30 29 29 28 28 27 26 24 23 22 21 21 21 21 21 21 21 21 21 21 22 22 23 24 24 25 26 27 28 29 29 30 30 30 29 29 29 29 28 28 28 27 26 25 24 23 22 21 20 19 18 17 17 16 16 15 14 14 13 13 12 12 12 12 12
70 68 65 63 61 60 59 57 56 54 53 51 49 48 47 45 43 42 40 37 35 34 32 32 31 30 29 27 26 24 23 22 21 20 20 21 21 21 20 20 20 21 21 22 23 24 25 25 26 27 28 28 28 28 28 28 28 28 28 28 28 28 28 27 26 25 24 23 22 21 20 19 18 18 17 16 16 15 14 14 13 12 12 11 11 11
73 70 67 65 63 62 61 60 58 57 55 54 52 50 49 47 46 44 43 41 39 37 35 34 33 33 31 30 28 26 24 23 21 20 20 20 20 20 20 20 20 20 21 21 22 23 24 25 25 26 27 27 26 26 26 27 27 27 27 27 27 28 28 27 26 25 25 24 23 22 21 20 19 18 18 17 17 16 15 14 13 13 12 12 11 11
74 72 69 67 65 64 63 62 60 59 58 56 54 53 51 50 48 47 45 43 42 40 39 37 36 35 34 33 31 29 27 25 23 22 20 20 20 20 20 20 20 20 21 21 22 23 24 24 25 26 26 26 26 26 26 26 26 26 26 26 26 27 27 27 27 26 26 25 24 23 22 21 20 19 19 18 18 17 17 15 14 13 12 12 11 11
76 74 72 69 68 66 65 64 63 61 60 59 57 55 53 52 51 49 48 46 45 43 42 41 40 38 38 36 35 33 31 29 27 25 23 21 20 20 20 20 20 20 20 21 22 22 22 23 24 25 26 26 26 25 25 24 24 24 25 25 26 26 27 28 28 27 27 26 26 24 23 22 21 20 19 19 19 18 18 17 15 14 13 12 11 11
78 76 74 72 70 68 67 66 64 63 62 61 59 58 56 55 53 52 51 49 48 46 45 44 43 42 41 40 39 37 36 34 31 29 26 25 23 21 20 20 20 20 20 20 21 20 20 21 22 23 24 24 24 24 24 24 23 23 23 24 25 26 27 28 28 28 28 28 27 25 24 23 21 20 20 20 19 19 19 18 17 15 14 12 11 11
Wind_Speed
16 16 15 15 16 16 16 16 17 17 17 18 18 18 18 18 18 18 18 17 17 17 17 17 18 19 20 21 22 22 23 24 24 25 26 26 24 21 18 17 17 19 21 23 24 25 27 27 27 27 27 26 26 26 26 26 25 24 23 22 20 19 18 17 16 16 16 16 17 18 19 20 21 21 22 23 24 25 26 26 27 28 30 30 31 31
15 15 15 15 15 16 16 16 17 17 17 18 18 18 18 18 18 17 17 17 17 16 16 17 17 18 19 20 21 22 23 24 24 25 25 24 22 19 17 15 16 18 20 21 22 24 26 26 26 26 26 25 25 26 26 26 25 24 23 22 20 19 18 18 17 17 17 18 18 19 19 20 21 21 22 23 24 25 25 26 27 28 29 29 29 28
15 15 15 15 15 16 16 16 17 17 17 17 17 17 17 17 17 17 17 16 16 16 16 16 17 17 19 20 21 22 22 23 24 25 24 23 21 18 16 15 15 17 18 19 21 23 25 25 25 25 25 25 25 25 26 26 26 25 23 22 21 20 19 18 18 18 19 19 20 20 21 22 22 23 23 24 25 26 26 27 28 28 27 26 25 24
15 15 15 15 15 16 16 16 16 17 17 17 17 17 17 16 16 16 16 16 15 15 15 15 16 17 18 19 20 21 22 23 24 24 23 22 20 17 15 14 14 14 15 17 20 22 23 24 24 24 24 24 25 25 26 26 26 25 24 23 22 21 21 20 20 20 21 22 22 23 24 25 25 26 26 27 27 27 28 28 28 27 26 24 22 22
14 14 15 15 15 15 16 16 16 16 16 16 16 16 16 15 15 15 15 15 14 14 14 15 16 17 18 19 20 21 21 22 23 23 22 21 19 16 14 13 12 12 13 15 19 22 22 22 22 23 23 24 24 25 25 25 26 26 25 24 24 23 23 23 23 23 23 24 24 25 26 27 28 28 29 29 29 29 29 28 27 27 27 26 26 27
14 14 14 15 15 15 15 16 16 16 16 15 15 15 15 14 14 14 14 14 13 13 14 15 16 17 18 19 19 20 21 21 22 22 21 20 18 16 14 12 11 11 12 15 18 20 20 20 21 22 23 24 24 24 25 25 25 25 25 25 24 24 24 24 24 24 24 25 25 26 27 28 29 29 30 30 31 31 30 30 28 28 28 29 29 30
14 14 14 14 15 15 15 15 15 15 15 14 14 14 13 13 13 13 13 13 13 13 13 14 15 16 17 18 19 19 20 21 21 21 21 19 17 15 13 12 11 11 13 16 18 19 18 19 20 22 23 24 24 24 25 25 25 25 25 24 24 24 24 24 24 24 24 25 25 25 26 26 27 28 29 30 31 31 31 31 30 29 29 29 30 31
13 14 14 14 15 15 15 15 15 14 14 13 13 13 12 12 12 12 12 12 12 12 13 14 15 16 17 18 18 19 19 20 20 20 20 19 17 15 13 12 12 13 14 16 17 17 17 17 19 21 23 24 25 25 25 24 24 24 24 24 24 24 24 24 24 24 24 24 24 24 24 24 25 25 26 28 29 30 31 31 31 30 30 29 29 30
13 13 14 14 14 14 15 14 14 14 13 13 12 12 12 11 11 11 11 11 11 12 12 13 14 15 16 17 18 18 18 19 19 20 19 19 17 15 13 13 13 14 15 15 16 15 15 15 17 20 22 24 25 25 25 24 24 24 24 23 23 23 23 23 23 23 22 22 23 23 24 24 24 24 25 26 27 28 30 30 30 30 28 27 27 27
12 13 13 14 14 14 14 14 14 13 13 12 12 11 11 10 10 10 10 10 11 11 12 13 14 15 16 17 18 18 18 18 18 19 19 19 17 16 14 14 15 15 15 15 14 14 13 13 15 17 19 21 22 23 23 23 23 24 25 26 26 26 26 25 24 22 21 21 21 22 23 24 25 25 25 25 26 26 27 27 27 27 27 27 27 26
12 12 13 13 13 14 14 13 13 13 12 11 11 11 10 10 9 9 9 9 10 11 11 12 13 14 15 16 17 17 17 17 17 18 19 19 18 17 16 16 16 15 14 13 13 12 11 11 12 13 15 17 18 19 19 20 22 24 26 28 30 31 31 30 28 25 22 20 20 21 22 23 23 23 22 22 22 22 22 23 25 27 29 30 31 30
12 12 12 12 13 13 13 13 12 12 11 11 10 10 9 9 8 8 8 9 9 10 11 11 12 12 14 15 16 17 16 16 17 18 19 19 19 18 17 17 16 15 14 12 11 10 10 9 9 10 12 14 15 16 16 18 20 23 26 28 30 30 31 31 31 29 26 23 20 19 19 19 18 17 17 17 17 18 20 23 26 28 30 30 30 29
11 12 12 12 12 12 13 12 12 11 10 10 9 9 9 8 8 8 8 8 9 9 10 10 11 12 13 15 16 16 16 16 17 18 19 20 20 19 18 18 17 15 14 12 10 9 8 8 7 7 9 11 13 14 15 16 19 22 24 25 26 26 27 28 29 29 29 27 24 21 19 18 17 16 16 16 17 18 20 22 24 25 24 23 23 22
11 11 11 11 12 12 12 12 11 11 10 9 9 8 8 8 7 7 7 8 8 8 9 10 10 11 12 14 16 16 16 16 17 18 19 20 21 21 20 19 18 17 15 13 11 9 9 7 6 6 7 9 11 12 14 17 18 19 20 21 22 23 24 25 26 27 27 27 26 24 22 21 19 18 17 17 17 17 18 19 19 19 18 17 17 17
11 11 11 11 11 11 11 11 11 10 10 9 8 8 7 7 7 6 7 7 7 8 8 9 10 11 12 14 15 16 16 16 17 19 20 21 21 22 22 21 20 19 18 16 14 12 11 9 7 6 7 8 10 13 16 18 18 17 16 16 18 20 22 23 23 24 24 24 24 23 22 21 19 17 15 14 14 15 16 16 16 15 15 14 15 15
11 10 10 10 10 10 11 11 10 10 9 9 8 7 6 6 6 6 6 6 6 7 7 8 10 11 12 13 15 16 17 17 18 19 20 21 22 22 22 22 21 20 20 18 17 16 14 12 10 9 9 10 13 16 19 19 18 16 15 15 16 17 18 19 20 20 20 20 19 19 18 16 14 12 10 10 10 11 12 12 12 12 12 12 12 12
10 10 10 10 10 10 10 10 10 10 9 8 7 6 6 5 5 5 5 5 5 6 7 8 10 11 13 13 15 16 16 17 18 19 20 21 22 22 22 22 22 21 20 19 19 18 17 16 14 13 14 15 17 19 20 20 19 17 16 15 15 15 16 16 17 17 16 16 15 14 12 10 8 7 7 7 7 8 8 8 9 9 8 9 9 9
10 10 9 9 9 9 10 9 9 9 9 8 7 6 5 5 5 4 4 4 4 5 6 7 9 11 13 14 15 15 16 16 17 19 20 21 21 22 22 22 21 21 20 19 18 18 18 17 17 17 18 19 20 20 19 18 17 16 15 14 14 14 14 14 14 13 12 12 11 10 8 6 6 5 5 4 4 5 5 6 6 6 6 6 6 7
10 10 9 9 9 9 9 9 9 9 8 8 7 6 5 4 4 4 3 3 4 5 6 8 9 11 12 13 14 15 16 16 17 19 20 20 21 21 21 21 21 20 19 18 18 17 17 17 17 18 18 19 18 17 16 14 13 12 12 12 12 12 12 11 10 9 8 7 6 5 4 4 4 4 4 4 3 2 1 2 2 3 4 4 5 6
10 10 9 9 9 8 8 8 8 8 8 7 7 6 5 4 4 3 2 2 3 4 5 7 9 10 11 12 13 14 15 16 17 19 20 20 20 20 20 20 20 20 19 18 17 17 16 16 16 16 16 16 15 14 13 11 10 9 9 9 10 10 9 8 7 5 4 3 2 2 2 2 3 4 4 5 5 4 4 3 3 3 3 4 5 5
10 10 9 9 8 8 8 8 8 8 8 7 7 6 6 5 4 3 2 2 2 3 5 6 8 9 10 11 12 14 15 16 17 18 19 19 19 19 18 18 18 18 18 17 17 16 17 16 16 16 15 14 14 13 11 10 9 9 9 9 9 10 9 8 7 6 4 2 1 1 3 4 5 5 6 7 7 7 7 7 7 7 7 7 7 7
10 10 9 8 8 7 7 7 7 7 7 7 7 7 6 5 4 3 2 1 2 3 4 5 6 7 8 9 11 12 14 15 16 17 18 18 18 18 17 17 16 16 16 16 15 15 16 16 15 15 14 14 13 13 12 11 10 10 10 10 10 10 10 10 9 8 6 5 3 2 1 2 4 5 6 7 8 9 9 10 10 11 11 11 11 11
10 10 9 8 8 7 7 7 7 7 7 7 7 7 6 6 4 3 2 1 1 2 3 4 5 6 7 7 9 10 12 13 14 15 16 17 17 17 16 16 15 16 15 14 14 14 14 14 14 14 13 13 13 13 12 12 11 11 11 11 11 11 11 10 10 9 9 8 6 5 3 2 1 2 3 4 6 7 8 9 10 11 12 13 13 14
10 10 9 8 7 7 7 6 6 6 6 7 7 7 7 6 5 4 3 2 1 1 3 3 4 5 5 6 7 8 10 11 12 13 15 16 16 16 15 15 15 15 15 14 13 13 13 13 13 12 12 12 12 12 11 11 11 11 11 11 11 11 10 10 10 9 9 8 8 7 6 5 4 3 2 1 1 3 4 5 7 8 9 10 12 12
11 10 9 8 8 7 6 6 6 6 6 6 7 7 7 6 6 5 4 3 2 2 2 3 3 3 4 4 5 6 8 9 10 11 13 14 14 14 14 14 15 15 15 14 13 13 13 13 13 12 12 12 11 11 11 10 10 10 10 10 10 10 9 9 9 9 8 8 7 7 6 6 5 5 4 4 3 2 1 1 2 4 5 6 8 9
11 10 9 9 8 7 6 6 6 6 6 6 6 7 7 7 6 5 5 4 3 2 3 3 3 2 2 3 4 5 6 7 8 9 11 12 13 13 13 14 14 14 14 14 14 14 14 14 14 13 13 13 12 12 11 11 10 10 9 9 9 9 8 8 8 7 7 7 6 6 6 5 5 4 4 4 3 3 3 2 1 1 2 3 4 5
12 11 10 9 8 7 7 6 6 6 5 6 6 6 7 7 7 6 6 5 4 3 3 3 3 2 1 1 2 3 4 5 7 8 9 10 11 12 12 12 13 13 13 13 13 13 14 14 14 14 14 14 13 13 12 12 11 10 10 9 9 8 8 7 7 7 6 6 6 5 5 5 4 4 3 3 3 3 3 2 2 1 1 1 2 3
12 11 10 9 8 7 7 6 6 5 5 5 6 6 7 7 7 7 7 6 5 4 4 4 3 2 1 1 1 2 3 4 5 6 7 8 9 10 11 11 11 11 11 12 12 12 12 13 13 14 14 13 13 13 13 12 12 11 11 10 9 9 8 8 7 7 7 6 6 5 5 4 4 3 3 3 3 2 2 2 2 2 1 1 1 2
13 11 10 9 8 8 7 6 6 6 5 5 6 6 7 7 7 7 7 7 6 5 4 4 3 3 2 1 1 1 2 3 4 5 5 6 8 9 10 10 10 10 10 10 10 10 11 12 12 12 13 13 13 13 13 12 12 12 12 11 11 10 9 9 8 8 7 7 7 6 6 5 5 4 4 3 3 3 3 3 2 2 2 2 2 2
13 12 11 10 9 8 7 7 6 6 5 5 6 6 6 7 8 8 8 7 6 6 5 4 4 3 3 2 1 1 1 1 2 3 4 5 6 7 8 9 9 10 10 10 9 10 10 10 10 11 11 11 11 11 11 11 12 12 11 11 11 11 10 10 9 8 8 7 7 7 7 6 6 5 5 5 4 4 4 4 4 4 4 4 4 4
14 13 11 10 9 8 8 7 6 6 6 5 6 6 6 7 8 8 8 8 7 6 6 5 4 4 3 3 2 2 1 0 1 2 2 4 5 6 7 8 8 9 9 9 9 10 10 10 9 9 9 9 9 9 10 10 10 10 10 10 10 10 10 10 9 9 8 8 8 7 7 7 7 6 6 6 6 6 6 5 5 5 5 5 6 6
14 13 12 11 10 9 8 7 7 6 6 6 6 6 6 7 7 8 8 8 8 7 6 6 5 5 4 4 3 3 2 1 0 1 1 2 3 4 5 6 7 8 8 9 9 10 10 10 9 9 8 8 8 8 8 8 8 9 9 9 9 9 9 9 8 8 8 8 8 7 7 7 7 7 7 7 7 7 7 7 7 7 7 7 7 7
15 14 13 12 11 9 9 8 7 7 6 6 6 6 6 7 7 8 8 8 8 8 7 6 6 5 5 4 4 3 3 2 2 1 0 1 2 3 4 5 5 6 7 7 8 9 9 9 9 9 8 8 8 8 7 7 7 7 7 8 8 8 8 8 8 8 8 7 7 7 7 7 7 7 7 7 7 8 8 8 8 8 8 8 8 9
16 15 14 12 11 10 9 8 8 7 7 6 6 6 6 7 7 8 8 8 8 8 8 7 7 6 5 5 4 4 4 3 3 2 2 1 0 1 2 3 4 5 5 6 7 7 8 8 9 9 8 8 8 8 8 8 7 7 7 7 7 7 7 7 8 8 8 8 8 8 8 7 8 7 7 8 8 8 8 8 9 9 9 9 10 10
17 15 14 13 12 11 10 9 8 8 7 7 7 7 7 7 7 8 8 8 8 8 8 8 7 7 6 5 5 4 4 4 4 3 3 2 1 0 1 2 3 3 4 5 5 6 7 7 8 8 8 8 8 8 8 8 8 8 7 7 7 7 7 7 8 8 8 8 8 8 8 8 8 8 8 8 8 8 8 9 9 9 9 10 10 11
17 16 15 14 13 12 11 10 9 8 8 8 7 7 7 7 7 8 8 8 8 9 8 8 8 7 7 6 5 5 5 5 5 4 4 3 2 1 0 1 2 2 3 3 4 5 5 6 6 7 7 8 8 8 8 8 8 8 8 8 8 8 8 8 8 8 8 8 9 9 9 9 9 9 9 10 10 10 10 10 10 10 10 10 10 11
18 17 16 15 14 13 12 11 10 9 9 8 8 8 7 7 8 8 8 8 9 9 9 9 8 8 7 7 6 6 6 5 5 5 4 4 3 2 1 0 1 2 2 3 3 4 4 5 5 6 6 7 7 8 8 8 9 9 9 9 9 9 9 9 9 9 8 9 9 9 9 10 10 10 10 11 11 11 11 11 11 11 11 11 11 11
19 18 17 16 15 14 13 12 11 10 9 9 8 8 8 8 8 8 8 9 9 9 9 9 9 8 8 7 7 6 6 6 6 5 5 4 4 3 2 1 0 1 2 2 3 4 4 4 4 5 5 6 6 7 7 8 8 9 9 9 10 10 10 10 10 10 10 10 9 10 10 10 10 11 11 11 11 12 12 12 12 12 12 13 13 13
20 19 18 17 16 15 14 13 12 11 10 10 9 9 8 8 8 8 9 9 9 9 9 9 9 9 8 8 7 7 7 6 6 6 5 5 4 3 2 1 0 1 1 2 3 3 4 4 4 4 5 5 6 6 7 7 8 8 9 9 10 10 11 11 11 12 12 12 11 11 11 11 11 11 11 11 12 12 12 13 13 13 13 13 14 14
21 20 19 18 17 16 15 14 13 12 11 10 10 9 9 9 9 9 9 9 9 9 9 9 9 9 9 8 8 8 7 7 7 6 6 5 5 4 3 2 1 0 1 2 2 3 3 4 4 5 5 5 6 6 6 7 7 8 8 9 10 10 11 12 12 13 13 13 13 13 13 12 12 12 11 12 12 12 13 13 13 14 14 14 14 14
22 21 19 18 17 16 15 15 14 13 12 11 10 10 10 9 9 9 9 10 10 10 9 9 9 9 9 9 8 8 8 7 7 6 6 5 5 4 3 2 1 0 1 1 2 3 3 4 4 4 5 5 6 6 6 7 7 8 8 9 10 10 11 11 12 13 14 14 15 15 15 15 14 14 13 13 12 13 13 13 14 14 14 14 15 15
22 21 20 19 18 17 16 15 15 14 13 12 11 11 10 10 10 10 10 10 10 10 10 9 9 9 9 9 8 8 8 7 7 7 6 5 5 4 3 2 1 0 1 1 2 2 3 3 4 4 5 5 6 6 6 7 8 8 9 9 10 10 11 11 12 13 14 14 15 16 16 16 16 16 15 15 14 14 14 14 14 14 15 15 15 15
23 22 21 20 19 18 17 16 15 14 14 13 12 12 11 11 11 10 10 10 10 10 10 10 9 9 9 9 8 8 8 7 7 6 6 5 5 4 3 3 2 1 0 1 2 2 3 3 4 4 5 5 6 6 7 7 8 9 9 10 10 11 11 12 12 13 14 14 15 16 16 16 17 17 17 17 16 16 15 15 15 15 15 15 16 16
24 23 22 21 20 19 18 17 16 15 15 14 13 13 12 12 11 11 11 11 11 11 10 10 10 10 9 9 9 8 8 7 7 7 6 5 5 4 4 3 2 2 1 1 1 2 3 3 3 4 5 5 6 6 7 8 9 9 10 10 11 11 12 12 13 14 14 15 15 16 16 17 17 17 18 18 18 17 17 17 16 16 16 16 16 16
25 24 23 22 21 20 19 18 17 16 16 15 14 14 13 13 12 12 12 12 11 11 11 11 10 10 10 9 9 8 8 7 7 7 6 6 5 4 4 3 2 2 1 1 1 2 2 3 3 4 4 5 6 6 7 8 9 10 11 11 12 12 13 13 14 14 15 15 16 16 17 17 17 18 18 18 18 18 18 18 18 18 17 17 17 17
25 24 24 23 22 21 20 19 18 18 17 16 15 15 14 13 13 13 12 12 12 12 12 11 11 11 10 10 9 8 8 8 7 7 6 6 5 5 4 3 3 2 1 1 0 1 2 2 3 3 4 5 6 7 8 9 9 10 11 12 12 13 14 14 15 15 15 16 16 17 17 17 18 18 18 18 19 19 19 19 19 19 19 18 18 18
26 25 24 23 22 22 21 20 19 19 18 17 17 16 15 15 14 14 13 13 13 12 12 12 12 11 11 10 10 9 8 8 7 7 6 6 6 5 5 4 3 2 2 1 0 0 1 2 3 3 4 5 6 7 8 9 10 10 11 12 13 14 14 15 15 16 16 16 17 17 17 18 18 18 18 19 19 19 19 19 20 19 19 19 18 18
27 26 25 24 23 22 22 21 20 20 19 18 18 17 16 16 15 14 14 14 13 13 13 13 12 12 12 11 11 10 9 9 8 7 7 6 6 5 5 4 4 3 2 2 1 1 1 1 2 3 4 5 6 7 8 9 10 10 11 12 13 14 15 15 16 16 17 17 17 17 18 18 18 19 19 19 19 19 19 19 20 20 19 19 19 19
28 27 26 25 24 23 23 22 21 21 20 20 19 18 17 17 16 15 15 14 14 14 13 13 13 13 12 12 12 11 10 10 9 8 8 7 6 6 5 5 4 4 3 3 2 2 2 2 2 3 3 5 6 7 8 9 10 11 12 12 13 14 15 15 16 16 17 17 17 18 18 18 19 19 19 19 19 19 19 19 19 19 19 19 19 18
28 28 27 26 25 24 24 23 22 22 21 21 20 19 18 17 17 16 15 15 14 14 14 14 14 13 13 13 13 12 12 11 10 10 9 8 7 7 6 6 5 5 4 4 3 3 3 3 3 4 4 5 5 7 8 9 10 11 12 12 13 14 15 15 16 16 17 17 18 18 18 19 19 19 19 19 19 19 19 19 19 19 19 19 19 18
29 28 27 26 26 25 24 24 23 23 22 22 21 20 19 18 17 17 16 16 15 15 15 14 14 14 14 14 13 13 13 12 12 11 10 10 9 8 8 7 7 6 6 5 5 5 4 4 4 5 5 5 6 7 8 9 10 11 12 13 13 14 15 15 16 16 17 17 18 18 19 19 19 19 20 19 19 20 20 19 19 19 19 19 19 18
Wind_Direction
282 283 283 284 284 285 285 285 285 286 288 289 290 293 296 300 304 308 313 316 318 320 320 321 322 323 323 323 324 325 327 330 333 335 337 338 338 336 331 327 327 331 338 344 352 360 5 8 9 11 14 17 21 26 30 33 36 38 41 46 52 61 71 82 93 104 115 125 134 142 149 155 160 164 168 170 172 173 174 174 174 175 176 177 178 179
282 283 283 284 284 285 285 285 286 287 289 291 293 296 300 304 308 312 316 319 321 322 323 324 326 327 327 328 330 332 334 337 339 341 342 343 342 339 334 329 329 333 340 348 358 7 12 14 16 18 21 24 29 34 38 42 45 47 51 55 60 67 75 85 94 104 112 120 128 135 141 146 150 154 157 160 161 162 164 165 166 168 170 171 171 173
282 283 284 284 285 285 285 286 287 288 290 293 296 299 303 307 311 316 319 322 323 324 326 328 330 332 333 335 337 339 341 343 345 346 347 347 346 344 340 334 333 336 344 355 7 16 20 22 23 25 28 32 36 41 45 49 52 55 58 63 68 74 81 89 98 106 113 119 125 130 134 138 141 144 147 149 151 153 155 157 160 162 164 162 162 165
282 283 284 285 285 285 286 286 287 289 291 294 297 301 306 310 314 318 321 323 325 327 329 332 335 337 339 342 344 346 347 349 350 351 352 352 353 352 348 342 340 344 353 6 18 25 28 29 31 33 35 39 43 47 51 55 58 61 64 68 73 78 85 92 98 105 111 117 122 126 129 132 135 138 140 142 145 147 150 152 155 156 156 156 164 173
282 283 284 285 285 285 286 286 287 289 291 294 298 303 308 312 317 320 323 324 327 330 333 337 339 342 345 347 349 350 352 353 354 356 357 359 0 1 358 353 352 358 9 21 29 34 36 37 38 41 43 46 49 52 56 59 62 65 68 71 75 80 86 92 98 104 109 114 119 123 127 130 133 136 139 141 143 145 147 149 152 153 152 158 171 181
281 282 283 284 285 285 286 286 287 289 292 295 299 304 308 314 318 322 324 326 329 333 337 340 343 345 348 351 353 354 356 357 359 1 2 5 7 7 6 6 10 21 31 37 40 42 43 45 46 48 50 52 55 57 60 62 65 68 70 73 77 81 86 91 96 102 107 112 116 121 125 129 133 136 138 140 142 145 148 150 151 152 153 158 166 174
280 281 283 284 284 285 285 286 287 289 292 295 299 304 309 315 319 323 325 328 332 336 340 343 345 348 351 354 356 358 359 1 4 5 7 8 9 10 13 19 32 45 50 50 49 49 51 52 54 55 57 58 60 61 63 65 67 69 72 75 78 82 86 90 95 100 105 109 114 118 122 127 131 135 138 140 144 147 150 151 152 154 155 157 161 166
279 280 282 283 284 285 285 286 287 288 291 295 299 304 309 315 320 323 326 329 334 338 342 345 347 349 353 357 360 2 3 6 8 9 10 11 11 14 21 35 53 63 64 60 57 56 57 59 61 62 63 63 64 64 66 67 68 69 70 72 75 79 83 88 93 98 103 109 113 117 122 127 131 136 139 143 146 148 150 152 154 155 154 155 157 161
276 279 281 282 283 283 284 285 286 287 290 294 299 303 309 314 319 323 327 331 337 342 345 347 349 351 355 360 3 6 7 10 11 13 13 14 15 20 33 51 67 74 73 68 64 62 64 66 68 68 68 67 66 66 67 68 68 67 65 65 67 70 75 81 87 94 101 108 115 120 125 129 134 137 141 144 146 148 149 151 152 153 152 154 158 162
274 277 279 280 281 281 282 283 284 286 289 293 298 302 308 313 319 324 329 335 340 344 346 348 350 353 357 2 6 9 11 13 15 17 18 19 22 30 45 63 75 80 79 75 70 68 69 71 73 74 72 68 65 64 64 65 65 64 62 61 63 65 68 72 77 85 96 106 115 121 126 130 133 136 140 142 145 146 148 150 153 157 160 164 169 174
272 275 277 279 279 280 280 281 282 284 287 292 296 301 306 313 319 326 332 336 341 345 347 348 350 354 360 5 9 12 15 17 20 22 24 26 30 40 54 68 78 82 82 79 76 74 75 77 78 76 72 66 62 60 60 62 64 64 65 65 66 67 68 69 70 75 84 98 112 121 125 128 131 133 137 142 146 150 155 159 164 169 173 176 179 183
270 273 275 277 278 279 279 279 280 282 285 290 294 298 304 312 320 327 333 337 340 345 348 348 349 353 1 7 12 15 18 22 25 28 30 33 37 46 58 69 76 80 82 81 79 79 80 82 82 77 70 61 57 57 61 66 69 70 69 69 68 68 68 67 68 70 75 85 100 115 124 126 126 127 133 141 150 158 164 169 172 175 176 178 180 182
268 271 274 276 277 278 278 278 279 281 284 287 291 295 303 313 321 328 333 337 341 345 348 350 352 356 2 9 14 17 21 26 31 34 36 39 43 49 58 66 72 75 77 77 78 81 85 87 85 76 63 53 52 58 69 77 79 77 73 70 67 65 64 65 67 69 73 78 86 97 107 113 115 118 126 137 148 157 163 167 170 172 174 175 176 176
266 270 273 276 277 277 277 277 277 279 281 285 289 295 303 312 320 328 334 337 342 346 350 352 356 1 6 11 15 18 23 29 35 38 40 43 45 50 56 62 67 70 71 71 72 77 83 86 84 72 56 47 52 66 81 89 89 84 76 68 62 60 62 65 68 71 75 79 83 88 95 102 109 116 122 130 139 147 153 158 162 165 167 168 168 169
264 268 272 275 276 277 276 276 276 276 278 281 287 293 302 310 319 327 333 339 344 348 352 356 1 7 11 14 17 20 24 32 39 42 44 45 47 50 54 59 64 67 68 69 70 73 76 79 78 69 58 55 65 78 89 93 92 86 75 63 58 58 62 67 70 74 78 83 89 95 102 108 114 118 121 125 131 137 143 149 153 158 162 165 167 169
262 266 271 274 276 276 275 274 273 273 274 277 282 289 299 308 317 325 332 339 346 351 355 1 9 14 16 17 19 22 27 35 42 45 46 47 49 51 54 58 62 66 68 70 71 71 73 73 73 71 71 75 82 87 90 89 86 81 71 61 57 58 63 67 71 74 79 85 92 100 107 111 112 111 111 116 124 132 140 147 153 159 165 170 173 176
259 264 269 273 274 274 273 271 270 269 269 271 276 282 291 301 312 322 331 339 348 356 2 9 15 18 19 20 22 24 28 36 44 48 49 49 50 52 54 57 61 65 69 72 73 74 74 74 74 76 81 87 91 93 91 88 84 79 73 67 63 62 64 66 69 72 76 81 87 93 97 96 91 85 88 102 118 130 139 148 156 165 172 178 183 186
256 261 266 270 272 272 271 269 267 266 265 265 268 274 282 292 305 317 329 341 354 7 15 20 22 21 21 23 26 27 29 37 45 50 51 51 51 52 54 57 60 63 67 71 74 75 75 75 75 78 83 88 93 95 94 90 86 81 76 72 69 68 68 69 70 71 72 75 79 82 80 71 58 51 56 75 100 120 133 144 155 166 176 184 189 193
253 258 263 267 270 271 271 269 266 263 261 260 261 266 273 284 296 310 326 343 3 18 27 30 29 26 24 25 27 28 29 36 45 51 52 52 52 52 53 56 58 60 63 66 70 72 73 72 73 75 79 83 88 91 92 91 86 80 74 72 70 71 72 74 74 73 72 72 73 72 66 49 26 13 12 17 29 52 98 138 159 173 184 192 196 199
250 256 260 265 269 271 271 269 265 262 258 256 255 257 262 271 282 298 319 347 13 29 36 37 36 33 29 29 30 30 32 37 45 51 53 54 53 53 53 55 58 60 61 63 65 67 67 67 68 70 73 77 81 84 85 83 78 72 67 66 67 69 73 77 81 84 83 71 50 23 357 340 330 327 326 326 325 321 312 300 280 257 238 228 223 220
248 253 258 262 267 270 271 269 265 260 256 253 251 251 253 259 267 279 301 349 25 40 45 45 42 38 35 35 35 36 36 40 47 52 54 55 54 54 54 56 58 60 61 62 63 65 66 66 66 67 68 71 74 75 75 73 69 65 63 62 64 67 70 74 79 85 92 95 70 331 318 313 308 304 302 300 299 297 293 289 284 278 271 263 256 250
244 249 255 260 264 267 269 268 265 260 254 250 246 244 245 249 253 259 270 330 44 54 54 51 48 43 39 39 40 42 43 46 51 54 56 56 56 55 55 56 59 60 61 62 62 64 66 66 66 66 67 68 70 71 71 70 68 66 65 65 66 66 68 69 71 75 78 82 85 76 10 314 302 295 291 288 287 285 284 282 280 278 275 272 269 265
241 246 251 256 260 264 267 267 266 260 254 248 243 240 239 239 240 242 241 236 76 69 64 60 55 49 43 42 44 47 50 53 56 58 60 60 59 57 56 57 59 61 61 60 61 63 65 66 66 65 64 64 65 66 67 67 68 68 68 67 67 67 66 67 67 69 71 73 73 72 68 60 21 307 288 282 279 277 276 276 276 275 274 273 271 269
238 242 246 251 256 260 264 266 265 261 254 247 242 237 235 234 233 234 232 222 163 98 83 75 66 57 49 46 47 50 53 56 59 62 64 64 62 60 58 58 59 61 61 60 59 61 63 64 64 62 62 60 60 59 60 60 62 63 64 64 64 64 64 65 66 67 68 69 69 68 67 64 60 55 43 3 299 277 271 270 268 268 268 268 267 266
233 238 242 247 251 256 261 264 265 262 256 248 241 236 233 230 229 229 228 218 188 139 108 91 74 59 51 47 49 52 53 55 59 64 67 68 66 64 61 59 59 60 61 60 59 59 60 61 60 59 58 57 55 54 53 53 53 54 55 56 57 58 59 60 62 63 65 66 67 67 65 63 59 55 50 46 41 31 1 294 266 259 256 254 253 251
230 234 238 243 248 253 258 262 264 263 258 250 242 235 230 227 225 222 219 209 189 158 130 111 93 69 52 46 48 52 51 53 56 62 67 70 69 67 64 61 60 59 60 59 58 58 59 59 58 57 55 53 52 51 50 48 48 48 48 49 49 50 51 52 53 55 57 60 61 62 62 60 57 54 51 46 42 37 31 21 1 298 255 241 235 231
226 231 235 240 244 248 254 259 262 261 258 251 242 235 229 225 221 218 213 206 195 174 148 130 120 104 75 52 49 52 50 51 54 58 62 67 70 69 67 64 61 59 58 58 57 56 57 57 57 55 54 52 51 49 48 47 45 44 44 43 43 42 42 41 41 42 44 46 48 50 51 53 51 48 45 42 39 35 31 23 15 2 330 259 233 224
223 228 232 236 240 244 249 253 258 259 258 251 244 236 229 223 219 216 213 210 203 189 167 151 144 142 136 95 56 53 50 50 51 52 55 61 66 67 66 65 63 61 58 57 55 54 55 55 55 54 52 50 49 47 46 45 44 43 41 40 38 36 34 32 30 29 28 28 28 29 30 31 30 29 25 21 16 13 10 2 359 351 338 303 251 230
220 225 229 233 236 240 245 250 254 256 256 252 244 236 229 222 218 215 213 212 207 198 183 171 165 165 169 172 137 74 55 51 48 46 48 55 60 61 60 60 60 59 57 56 55 55 54 54 53 51 50 48 46 45 43 42 42 40 39 37 36 34 32 29 26 22 19 17 14 12 11 9 7 4 0 355 350 343 336 327 319 313 302 290 272 254
217 221 226 229 233 237 241 246 250 252 253 250 244 236 229 223 218 215 213 212 210 204 194 187 181 179 180 182 180 153 90 56 41 37 42 50 53 53 52 52 52 52 51 52 52 53 54 54 53 51 49 47 44 42 41 40 38 37 36 34 32 31 29 27 24 21 17 13 9 4 1 357 354 350 345 341 336 330 323 316 308 301 294 287 280 272
215 219 222 226 230 233 237 241 245 248 249 247 243 236 229 223 218 215 213 212 210 208 203 199 194 190 187 186 182 180 176 112 30 22 34 44 48 46 45 45 44 42 41 42 45 48 51 52 51 50 49 47 43 41 39 37 36 35 33 32 30 27 26 24 22 19 16 12 7 2 356 352 346 342 338 333 329 324 320 314 309 303 297 291 286 281
213 216 219 223 227 230 233 237 240 243 245 244 241 236 229 223 218 215 213 211 210 209 208 206 205 202 198 194 190 191 197 200 233 332 21 40 44 43 41 39 37 35 32 31 33 37 41 44 44 43 44 43 42 40 38 35 33 32 30 28 26 24 21 19 17 15 12 9 5 0 355 349 344 339 333 329 324 320 316 312 309 304 300 294 290 286
210 213 217 220 223 226 229 233 236 239 240 240 238 235 229 223 219 215 212 210 210 210 210 210 211 210 206 202 200 200 202 206 216 232 263 37 45 44 41 38 36 32 28 26 24 25 28 31 33 33 34 34 35 36 35 33 30 27 24 22 20 18 15 13 10 8 5 2 359 355 351 347 342 337 332 327 322 318 314 310 308 304 300 297 293 289
209 211 214 218 221 224 227 229 232 235 236 237 236 233 229 223 218 214 211 210 210 210 211 211 212 212 211 208 205 203 204 206 213 221 225 221 58 48 44 41 37 33 29 25 22 20 19 19 20 21 22 22 23 25 27 27 26 24 21 18 15 12 9 6 4 0 357 354 350 347 343 340 337 333 329 325 321 317 314 310 307 303 301 298 295 291
208 210 212 215 218 221 224 227 229 232 234 234 233 232 228 223 218 214 211 209 209 210 211 212 213 213 211 209 206 205 205 208 212 217 220 219 214 89 53 45 41 38 32 27 23 19 15 13 11 10 11 13 13 14 15 17 18 19 17 15 13 9 6 3 360 356 353 349 346 342 338 335 332 328 325 322 319 316 312 309 305 302 300 297 294 292
207 208 211 213 216 219 221 224 227 229 231 232 232 230 227 223 218 214 210 208 207 208 209 211 212 213 212 211 208 207 208 211 214 217 219 220 218 213 177 56 48 45 39 33 28 23 16 12 8 5 3 4 4 4 4 4 6 8 10 10 10 8 5 2 359 355 352 347 344 340 336 333 330 326 322 320 317 314 311 308 305 302 299 297 294 292
207 208 210 212 214 217 219 222 225 227 229 230 231 229 227 223 219 215 211 208 206 206 207 208 210 211 211 211 210 210 211 213 216 217 218 220 222 222 216 178 70 55 47 39 33 28 22 16 10 6 2 359 358 357 357 355 355 357 359 1 2 3 2 0 358 356 353 348 344 340 336 332 329 325 322 319 316 314 311 309 306 304 302 300 297 295
207 207 209 211 213 215 218 220 223 225 227 229 229 228 226 223 219 215 211 208 206 205 205 206 206 207 208 209 209 210 212 214 215 217 219 221 224 226 223 213 127 72 59 48 41 35 28 21 15 10 5 1 357 354 352 350 350 351 350 350 351 353 354 355 354 354 352 349 346 342 338 333 329 325 322 319 316 314 311 310 307 306 304 303 301 300
207 207 208 210 212 214 216 218 221 223 225 227 228 227 226 223 220 216 213 209 207 205 203 204 204 205 206 207 208 209 211 213 215 217 219 223 227 229 229 226 191 85 64 56 47 40 33 27 21 15 10 5 1 357 354 350 348 347 345 343 343 344 346 347 348 349 348 348 346 344 341 337 333 328 324 320 316 314 312 310 308 307 306 305 303 302
207 207 208 210 211 213 215 217 219 222 224 226 227 227 226 224 221 218 214 211 208 206 204 203 203 204 205 205 207 208 210 212 214 216 219 223 225 228 230 229 225 75 58 51 46 39 32 28 24 20 15 9 4 359 356 353 350 346 344 342 342 342 341 342 342 343 343 344 344 343 342 340 337 333 328 323 318 315 312 309 307 306 305 304 304 303
208 208 208 209 211 212 214 216 218 221 223 224 226 227 226 225 222 219 216 214 211 209 207 206 206 205 205 205 206 207 209 210 212 214 217 219 221 223 223 223 220 67 37 38 37 33 28 24 21 18 15 9 4 360 356 354 351 348 346 344 343 341 339 338 338 339 340 340 341 340 340 339 338 335 332 328 323 319 314 310 308 305 304 303 302 302
209 208 209 209 211 212 214 216 217 219 222 224 226 227 226 226 224 222 219 217 215 213 211 210 209 207 206 206 206 207 207 209 210 211 212 213 213 214 212 210 202 187 27 22 23 23 23 20 17 13 10 6 1 357 354 352 350 349 347 345 343 340 339 338 338 338 339 339 338 338 337 337 337 335 334 331 328 324 319 315 311 307 305 303 302 301
209 209 209 210 211 212 213 215 217 219 221 223 225 227 227 227 226 224 222 220 219 217 216 214 212 211 209 208 208 208 208 209 209 209 209 208 207 206 203 198 189 176 81 21 13 12 15 15 13 10 6 2 358 354 351 350 349 348 347 345 344 343 342 341 340 339 338 338 337 336 336 336 335 334 333 332 330 327 324 320 316 312 308 306 304 303
210 210 210 210 211 212 213 215 217 218 221 223 225 226 228 228 227 227 226 224 223 222 221 219 218 216 214 213 212 211 211 211 211 210 208 206 204 202 198 193 185 172 139 48 11 6 6 7 6 4 0 357 353 350 349 347 347 346 345 345 343 343 343 341 340 339 338 337 336 336 335 334 333 332 331 330 329 328 326 323 320 317 313 310 307 305
211 210 210 211 211 212 214 215 217 218 220 222 224 226 228 229 229 229 228 227 227 226 225 224 222 221 219 218 217 216 215 214 213 212 211 208 206 202 199 194 189 180 162 111 41 17 4 358 356 357 357 353 349 346 345 344 344 343 343 342 342 341 340 339 338 338 338 337 336 335 335 334 333 332 331 330 328 327 326 325 323 321 318 315 312 309
212 211 211 211 212 213 214 215 217 219 220 222 224 226 228 229 230 230 230 230 230 229 229 229 227 226 225 224 223 222 220 219 218 217 215 214 211 209 206 203 199 193 188 175 81 29 16 4 358 354 351 347 345 343 343 342 342 341 340 340 339 339 338 337 337 337 337 337 336 335 334 334 333 332 331 330 329 328 326 325 324 323 321 319 316 313
213 212 212 212 213 213 215 216 217 219 221 222 224 226 228 229 231 232 232 233 233 232 233 232 232 231 230 230 229 228 227 226 225 224 222 222 220 217 216 214 212 211 212 213 233 328 1 2 0 355 348 341 337 337 339 340 339 338 337 337 336 336 336 336 336 335 335 335 335 334 334 333 333 332 331 330 329 328 327 326 325 324 323 321 319 316
214 213 213 213 213 214 215 216 218 219 221 223 225 226 228 230 231 232 233 234 235 235 236 236 236 236 235 235 234 234 233 233 232 232 231 231 230 228 226 225 225 228 233 243 258 282 308 328 340 344 343 338 334 333 334 336 336 335 334 334 333 333 333 333 333 333 333 333 333 333 333 333 333 332 331 330 330 329 328 327 326 325 324 322 321 319
215 214 214 213 214 215 216 217 219 220 222 223 225 226 228 230 231 233 234 235 237 238 239 239 240 240 240 240 239 239 239 239 239 239 240 240 240 240 239 239 239 241 246 254 266 284 300 310 315 322 330 332 331 331 331 332 332 332 331 331 330 330 330 330 329 330 330 330 330 330 331 331 331 331 330 330 330 329 328 328 327 326 325 324 323 322
216 215 215 215 215 216 217 218 219 221 222 224 225 227 228 230 231 233 235 236 237 239 240 241 242 243 244 244 244 244 244 244 244 245 246 247 248 249 249 250 252 254 258 264 273 283 293 300 304 308 315 320 323 325 326 327 328 328 328 327 327 327 327 326 326 326 326 327 327 328 328 329 329 329 329 329 329 329 328 328 327 327 326 326 325 324
217 217 216 216 216 216 218 219 220 222 223 225 226 227 228 230 232 233 235 236 238 239 241 242 244 245 246 247 248 248 248 248 249 249 250 251 252 253 255 256 257 259 263 266 270 276 282 289 294 297 303 308 314 318 320 322 324 325 324 324 324 324 323 323 322 322 323 323 324 325 326 327 327 328 328 329 329 328 328 328 328 327 327 326 326 325